User: anonymous   Login
Location: Maiden_LMO
(35.5760°N, 81.2120°W)
Time: 07:12:07
(UTC-04:00)
Language:

ADEOS II - Orbit

View from above orbital plane
View from above orbital plane
View from above satellite
View from above satellite

Ground track
Ground track

The orbit data is extracted from the following two-line orbital elements,

1 27597U 02056A   17290.52110476 +.00000066 +00000-0 +43926-4 0  9998
2 27597 098.3852 254.9781 0001213 035.0983 325.0278 14.27310964772873
Epoch (UTC): 17 October 2017 12:30:23
Eccentricity: 0.0001213
inclination: 98.3852°
perigee height: 800 km
apogee height: 801 km
right ascension of ascending node: 254.9781°
argument of perigee: 35.0983°
revolutions per day: 14.27310964
mean anomaly at epoch: 325.0278°
orbit number at epoch: 77287

The dashed part of the orbit path shows where the satellite is in the earth's shadow,  

DLR